ROMMA est une association bénévole à but non lucratif. Votre soutien est indispensable : ADHERER à ROMMA ou FAIRE un DON

Briord - (01, Ain)

Bugey (281 m)   Longitude: 05° 29' 13" E   Latitude: 45° 46' 37" N Station partenaire n°15
 

Détail journalier du     <<     >>

Température Precipitation Humidité Pression Vent Dir Rafale Dir. rafale Ensol.
Heure (°C) (mm) (%) (hPa) (km/h) (km/h) (min)
01:00 1.7095102500---0
02:00 1.7095102500---0
03:00 2.1095102500---0
04:00 1.9096102500---0
05:00 1.8096102502NNO0
06:00 1.5096102505NNE0
07:00 1.3095102503SE0
08:00 1.6096102503N0
09:00 2.0096102503NNO0
10:00 2.3096102602NO0
11:00 2.9096102705NO0
12:00 3.3096102706O0
13:00 4.109610271SSE11SSO0
14:00 4.8096102605SO0
15:00 5.4095102708NO35
16:00 5.3094102805O0
17:00 5.2094102900---0
18:00 5.3094103000---0
19:00 5.3094103000---0
20:00 5.80.29310301---10E0
21:00 5.6094103003E0
22:00 5.60.295103000---0
23:00 5.6095103000---0
minuit 5.7095103000---0

Graphique du 26-12-2019

 

Serveur OMMA